Location: ?�kov
(49.4404°N, 15.1201°E)
Time: 04:50:39
(UTC+00:00)

USA 215 - Pass Details

Date: 07 June 2020
Orbit: 1098 x 1110 km, 123.0° (Epoch: 10 July)

Event Time Altitude Azimuth Distance (km) Brightness Sun altitude
Exits shadow 00:28:06 13° 165° (SSE) 2,750 4.9 -15.1°
Maximum altitude 00:33:27 37° 228° (SW) 1,644 3.7 -14.7°
Drops below altitude 10° 00:39:27 10° 294° (WNW) 2,967 5.5 -14.4°
Sets 00:42:10 0° 303° (WNW) 3,926 6.3 -14.2°
